Location: Leeds
(37.2390°N, 113.3580°W)
Time: 19:00:51
(UTC-06:00)

Daily predictions for brighter satellites

Satellite Brightness Start Highest point End
(mag) Time Altitude Azimuth Time Altitude Azimuth Time Altitude Azimuth
Cosmos 2154 Rocket 4.2 20:35:31 10° SSE 20:41:33 52° E 20:47:33 10° NNE
Resurs 01 Rocket 2.8 20:40:49 10° ESE 20:44:26 25° ENE 20:48:03 10° NNE
Cosmos 2184 Rocket 4.2 20:38:43 10° S 20:44:53 81° W 20:51:05 10° N
SJ-6B 2.9 20:42:11 10° SSE 20:46:11 62° ENE 20:50:07 10° N
Cosmos 1300 4.3 20:48:44 10° SSW 20:52:19 40° W 20:55:57 10° N
Cosmos 1939 Rocket 3.6 20:49:46 10° SE 20:53:13 32° ENE 20:56:42 10° N
NOSS 2-1 (E) 3.8 20:50:06 10° SW 20:53:40 59° NW 20:57:32 10° NNE
Meteor 2-21 4.4 20:48:52 10° S 20:54:55 69° E 21:01:04 10° NNE
Meteor 2-3 Rocket 4.3 20:51:22 10° N 20:56:34 38° ENE 21:01:48 10° SE
Cosmos 2341 Rocket 4.2 20:58:51 10° SSE 21:05:01 54° E 21:11:08 10° NNE
NOSS 0 Rocket 4.1 20:59:23 10° S 21:05:18 51° ESE 21:11:16 10° NNE
NOSS 3-3 (A) 4.0 21:01:37 10° SSW 21:07:34 87° WNW 21:14:07 10° NNE
NOSS 3-3 (C) 4.0 21:01:44 10° SSW 21:07:41 88° WNW 21:14:12 10° NNE
Cosmos 1980 3.9 21:04:29 10° S 21:09:53 47° ESE 21:15:18 10° NE
Cosmos 1666 Rocket 3.5 21:05:42 10° N 21:10:11 77° E 21:14:37 10° S
Cosmos 1408 4.1 21:08:45 10° NNE 21:11:30 20° ENE 21:12:36 17° E
USA 186 0.7 21:12:04 18° SSE 21:13:31 67° ENE 21:15:47 10° N
ERS-2 2.1 21:10:26 10° SSE 21:14:05 83° WSW 21:17:47 10° NNW
Cosmos 220 Rocket 4.4 21:10:28 10° N 21:14:36 43° ENE 21:17:27 18° SE
Cosmos 1455 2.1 21:11:59 10° S 21:15:46 69° E 21:19:36 10° NNE
CZ-2D R/B 4.0 21:12:08 10° S 21:15:51 53° W 21:19:35 10° NNW
Cosmos 1151 Rocket 3.5 21:13:21 10° SSE 21:17:17 38° E 21:21:16 10° NNE
Resurs 1-3 3.7 21:13:10 10° SSE 21:17:29 59° ENE 21:21:48 10° N
H-2A R/B 3.8 21:17:10 12° E 21:18:44 14° ENE 21:21:18 10° NNE
USA 267 4.4 21:14:31 10° E 21:18:50 18° ESE 21:23:08 10° SSE
Sich 1 3.2 21:15:45 10° N 21:20:00 73° W 21:24:15 10° S
Cosmos 2333 Rocket 2.3 21:15:08 10° SSW 21:20:48 85° WNW 21:26:30 10° NNE
ATLAS 2A CENTAUR R/B 4.4 21:19:48 10° WSW 21:22:21 13° SW 21:24:00 10° S
Meteor 1-27 4.2 21:18:32 10° S 21:24:17 81° E 21:29:58 10° N
Cosmos 1892 2.9 21:21:54 10° N 21:25:47 74° W 21:29:37 10° S
COSMOS 2428 4.0 21:20:38 10° SW 21:26:05 45° WNW 21:31:34 10° N
Cosmos 1844 Rocket 3.1 21:20:35 10° NNW 21:26:11 63° WSW 21:31:44 10° S
YAOGAN 6 2.6 21:22:58 10° S 21:26:31 83° WSW 21:30:11 10° NNW
SL-8 Rocket 4.1 21:24:00 10° SSE 21:30:07 55° E 21:36:14 10° NNE
Envisat 3.9 21:25:15 10° S 21:30:08 48° W 21:35:03 10° NNW
SAR-Lupe-3 4.4 21:29:15 10° NNE 21:32:50 78° ESE 21:36:24 10° S
Cosmos 2251 Rocket 4.2 21:27:44 10° NNW 21:32:58 55° WSW 21:38:10 10° S
Cosmos 1844 3.9 21:27:36 10° NNW 21:33:18 73° WSW 21:38:39 12° SSE
Cosmos 2219 Rocket 3.0 21:29:33 10° SW 21:35:05 54° WNW 21:40:38 10° NNE
SJ-11-01 4.2 21:32:12 16° SSE 21:35:57 78° ENE 21:40:38 10° N
Cosmos 2237 Rocket 2.1 21:31:35 10° SSW 21:37:10 75° ESE 21:42:48 10° NNE
Genesis I 3.3 21:34:23 10° NNW 21:38:27 63° ENE 21:40:01 34° SE
Cosmos 2056 Rocket 3.9 21:37:10 11° S 21:42:00 41° ESE 21:47:03 10° NNE
Cosmos 1633 Rocket 3.7 21:37:53 10° NNW 21:42:08 54° W 21:46:22 10° S
Cosmos 2278 Rocket 2.2 21:43:24 10° NNW 21:49:03 65° ENE 21:51:44 31° SE
Cosmos 2098 Rocket 3.3 21:47:46 30° SSE 21:49:39 48° E 21:53:30 10° NNE
Cosmos 1515 Rocket 3.7 21:46:42 10° S 21:51:10 77° W 21:55:38 10° N
NOAA 11 4.1 21:47:34 21° SSE 21:51:20 83° ENE 21:56:52 10° N
Cosmos 2228 Rocket 3.4 21:52:16 10° SSW 21:56:36 66° W 22:01:00 10° N
Cosmos 1624 Rocket 3.9 21:53:52 10° S 21:58:57 63° ESE 22:04:04 10° NNE
Cosmos 864 Rocket 4.3 21:56:38 16° S 22:01:32 70° E 22:07:38 10° NNE
ASTRO E2 4.4 21:58:59 10° SW 22:00:59 21° SSW 22:00:59 21° SSW
Cosmos 1825 2.0 22:00:22 10° N 22:04:10 88° E 22:04:39 66° S
SPOT 5 4.4 22:07:48 20° ENE 22:07:48 20° ENE 22:10:29 10° NNE
Sakura Rocket 4.4 22:05:48 10° WSW 22:08:35 23° SSW 22:08:35 23° SSW
ATLAS CENTAUR R/B 3.9 22:09:08 10° W 22:11:54 20° NW 22:14:45 10° N
OAO 2 Rocket 4.2 22:07:17 10° W 22:11:59 35° SSW 22:12:37 34° S
Spot 2 Rocket 4.2 22:09:25 19° S 22:12:57 50° W 22:17:54 10° NNW
BREEZE-M DEB (TANK) 4.3 22:16:21 10° NW 22:17:44 20° NNW 22:17:44 20° NNW
CSL-04 DEB 4.4 22:19:06 76° SE 22:19:22 82° ENE 22:23:47 10° N
Resurs 01 Rocket 3.5 22:17:10 11° SSW 22:20:48 26° W 22:24:33 10° NW
ATLAS 2AS CENTAUR R/B 3.3 22:16:01 10° NW 22:23:37 58° WSW 22:27:11 30° S
GEOS 3 Rocket 3.5 22:18:57 10° NE 22:24:15 62° ESE 22:24:43 59° SSE
SL-16 R/B 2.0 22:24:48 33° S 22:27:24 79° ESE 22:33:05 10° NNE
ARGOS 3.0 22:29:47 61° SSE 22:30:47 89° WSW 22:36:10 10° NNW
MetOp-B 4.0 22:32:28 68° SSE 22:33:09 84° ENE 22:38:32 10° NNW
SL-08 RB Rocket 3.7 22:34:41 69° NNE 22:34:41 69° NNE 22:38:44 10° N
Cosmos 1727 Rocket 4.0 22:35:14 10° N 22:41:25 79° W 22:42:59 52° S
Cosmos 1821 Rocket 4.2 22:42:14 51° ENE 22:42:14 51° ENE 22:47:57 10° NNE
ATLAS 2A CENTAUR R/B 4.0 22:27:48 10° WSW 22:43:42 41° S 22:44:53 40° SSE
Meteor 2-10 Rocket 4.4 22:42:56 22° SSW 22:46:28 54° WNW 22:52:10 10° N
DMSP B5D2-2 4.5 22:41:15 10° NNE 22:45:19 50° NE 22:45:19 50° NE
SPOT 1/Viking Rocket 4.0 22:50:17 49° NE 22:50:17 49° NE 22:54:34 10° N
ERS-1 Rocket 3.0 22:50:08 78° NW 22:50:08 78° NW 22:54:54 10° NNW
USA 81 4.2 22:48:13 10° N 22:53:27 66° W 22:53:44 65° WSW
NOSS 3-4 (A) 3.7 22:47:03 10° NNW 22:54:12 78° ENE 22:55:20 65° ESE
NOSS 3-4 (C) 3.8 22:47:09 10° NNW 22:54:19 77° ENE 22:55:26 65° ESE
Cosmos 407 Rocket 3.6 22:50:00 10° NNW 22:54:44 69° WNW 22:54:44 69° WNW
H-2A R/B 2.3 22:57:48 62° W 22:57:48 62° W 23:02:35 10° NNW
Cosmos 2344 3.4 22:52:28 10° SSW 23:00:08 83° ESE 23:08:16 10° NE
Cosmos 2297 3.7 22:55:54 10° NNW 23:01:18 78° WNW 23:01:18 78° WNW
USA 267 3.1 22:55:47 10° NE 23:02:21 85° SE 23:08:54 10° SW
Cosmos 2369 Rocket 3.9 23:03:35 10° N 23:07:06 22° NE 23:07:06 22° NE
Cosmos 1452 Rocket 4.5 23:26:08 44° NNW 23:26:08 44° NNW 23:30:00 10° N
Terra 3.4 23:27:10 30° N 23:27:10 30° N 23:29:36 10° N
CZ-4C R/B 3.7 23:29:47 26° NNE 23:29:47 26° NNE 23:32:21 10° NNE
Cosmos 2278 Rocket 4.4 23:29:22 10° WNW 23:32:29 15° W 23:33:36 14° WSW
USA 234 4.5 23:32:57 28° NE 23:34:21 31° NNE 23:39:54 10° NNW
ATLAS 5 CENTAUR R/B 3.8 23:31:13 10° NNW 23:35:41 28° NE 23:35:41 28° NE
Centaur D-1A AC-31 4.4 23:45:45 10° WSW 23:46:01 11° WSW 23:46:01 11° WSW
Lacrosse 5 3.9 23:46:12 10° NNW 23:48:54 23° N 23:48:54 23° N
